Kurnell Observation History
Time Wind Speed Temp Pressure Rel. Hum Rain
04/04:30am WSW 13-16 kts n/a n/a n/a n/a
04/04:00am WSW 14-17 kts n/a n/a n/a n/a
04/03:30am W 13-15 kts n/a n/a n/a n/a
04/03:00am W 13-15 kts n/a n/a n/a n/a
04/02:30am W 12-15 kts n/a n/a n/a n/a
04/02:00am WSW 14-18 kts n/a n/a n/a n/a
04/01:30am WSW 14-19 kts n/a n/a n/a n/a
04/01:00am WSW 13-18 kts n/a n/a n/a n/a
04/12:30am SW 19-27 kts n/a n/a n/a n/a
04/12:25am SW 19-27 kts n/a n/a n/a n/a
04/12:00am WSW 14-18 kts n/a n/a n/a n/a
Time Wind Speed Temp Pressure Rel. Hum Rain
03/11:30pm WSW 13-20 kts n/a n/a n/a n/a
03/11:00pm SW 14-19 kts n/a n/a n/a n/a
03/10:30pm WSW 15-19 kts n/a n/a n/a n/a
03/10:00pm SW 15-20 kts n/a n/a n/a n/a
03/09:30pm WSW 15-18 kts n/a n/a n/a n/a
03/09:00pm WSW 16-23 kts n/a n/a n/a n/a
03/08:59pm WSW 16-26 kts n/a n/a n/a n/a
03/08:30pm SW 15-19 kts n/a n/a n/a n/a
03/08:01pm SSW 18-28 kts n/a n/a n/a n/a
03/08:00pm SSW 19-28 kts n/a n/a n/a n/a
03/07:57pm SSW 18-28 kts n/a n/a n/a n/a
03/07:30pm SSW 17-26 kts n/a n/a n/a n/a
03/07:24pm SSW 18-28 kts n/a n/a n/a n/a
03/07:00pm SSW 18-24 kts n/a n/a n/a n/a
03/06:30pm SSW 18-25 kts n/a n/a n/a n/a
03/06:00pm SSW 17-22 kts n/a n/a n/a n/a
03/05:37pm SSW 15-26 kts n/a n/a n/a n/a
03/05:30pm SSW 16-21 kts n/a n/a n/a n/a
03/05:00pm S 17-26 kts n/a n/a n/a n/a
03/04:30pm SSW 16-21 kts n/a n/a n/a n/a
03/04:00pm SSW 17-25 kts n/a n/a n/a n/a
03/03:30pm SSW 17-24 kts n/a n/a n/a n/a
03/03:21pm SSW 18-28 kts n/a n/a n/a n/a
03/03:00pm SSW 20-27 kts n/a n/a n/a n/a
03/02:31pm SSW 20-30 kts n/a n/a n/a n/a
03/02:30pm SSW 21-30 kts n/a n/a n/a n/a
03/02:10pm SSW 18-29 kts n/a n/a n/a n/a
03/02:00pm SSW 16-22 kts n/a n/a n/a n/a
03/01:30pm SSW 17-23 kts n/a n/a n/a n/a
03/01:00pm SSW 18-26 kts n/a n/a n/a n/a
03/12:30pm SW 18-27 kts n/a n/a n/a n/a
03/12:00pm SW 17-28 kts n/a n/a n/a n/a
03/11:38am SW 17-29 kts n/a n/a n/a n/a
03/11:30am SW 16-21 kts n/a n/a n/a n/a
03/11:00am SW 18-28 kts n/a n/a n/a n/a
03/10:55am SW 18-28 kts n/a n/a n/a n/a
03/10:30am WSW 15-18 kts n/a n/a n/a n/a
03/10:00am WSW 16-20 kts n/a n/a n/a n/a
03/09:30am WSW 15-22 kts n/a n/a n/a n/a
03/09:00am WSW 19-24 kts n/a n/a n/a n/a
03/08:30am WSW 19-26 kts n/a n/a n/a n/a
03/08:00am W 17-21 kts n/a n/a n/a n/a
03/07:30am W 15-20 kts n/a n/a n/a n/a
03/07:00am W 15-18 kts n/a n/a n/a n/a
03/06:30am WNW 11-14 kts n/a n/a n/a n/a
03/06:00am WNW 16-19 kts n/a n/a n/a n/a
03/05:30am WNW 19-23 kts n/a n/a n/a n/a
03/05:00am W 18-22 kts n/a n/a n/a n/a
03/04:30am WNW 16-20 kts n/a n/a n/a n/a
03/04:00am WNW 15-18 kts n/a n/a n/a n/a
03/03:30am NW 14-16 kts n/a n/a n/a n/a
03/03:00am NW 15-18 kts n/a n/a n/a n/a
03/02:30am WNW 15-17 kts n/a n/a n/a n/a
03/02:00am WNW 15-17 kts n/a n/a n/a n/a
03/01:30am WNW 15-17 kts n/a n/a n/a n/a
03/01:00am WNW 14-16 kts n/a n/a n/a n/a
03/12:30am WNW 14-16 kts n/a n/a n/a n/a
03/12:00am WNW 13-15 kts n/a n/a n/a n/a
Time Wind Speed Temp Pressure Rel. Hum Rain
02/11:30pm WNW 15-17 kts n/a n/a n/a n/a
02/11:00pm WNW 15-18 kts n/a n/a n/a n/a
02/10:30pm WNW 15-17 kts n/a n/a n/a n/a
02/10:00pm WNW 17-20 kts n/a n/a n/a n/a
02/09:30pm WNW 16-19 kts n/a n/a n/a n/a
02/09:00pm WNW 17-19 kts n/a n/a n/a n/a
02/08:30pm WNW 17-20 kts n/a n/a n/a n/a
02/08:00pm WNW 19-23 kts n/a n/a n/a n/a
02/07:30pm W 19-24 kts n/a n/a n/a n/a
02/07:00pm W 19-24 kts n/a n/a n/a n/a
02/06:30pm W 20-24 kts n/a n/a n/a n/a
02/06:00pm W 20-23 kts n/a n/a n/a n/a
02/05:30pm W 21-26 kts n/a n/a n/a n/a
02/05:00pm W 16-19 kts n/a n/a n/a n/a
02/04:30pm W 17-23 kts n/a n/a n/a n/a
02/04:00pm WSW 12-17 kts n/a n/a n/a n/a
02/03:30pm WSW 10-13 kts n/a n/a n/a n/a
02/03:00pm WSW 13-16 kts n/a n/a n/a n/a
02/02:30pm SW 13-17 kts n/a n/a n/a n/a
02/02:00pm SW 13-17 kts n/a n/a n/a n/a
02/01:30pm WSW 11-15 kts n/a n/a n/a n/a
02/01:00pm WSW 16-20 kts n/a n/a n/a n/a
02/12:30pm W 17-21 kts n/a n/a n/a n/a
02/12:00pm W 16-20 kts n/a n/a n/a n/a
02/11:30am W 15-18 kts n/a n/a n/a n/a
02/11:00am W 18-22 kts n/a n/a n/a n/a
02/10:30am W 18-23 kts n/a n/a n/a n/a
02/10:00am W 17-19 kts n/a n/a n/a n/a
02/09:30am WNW 15-18 kts n/a n/a n/a n/a
02/09:00am WNW 13-15 kts n/a n/a n/a n/a
02/08:30am W 14-17 kts n/a n/a n/a n/a
02/08:00am W 16-19 kts n/a n/a n/a n/a
02/07:30am W 15-18 kts n/a n/a n/a n/a
02/07:00am W 14-16 kts n/a n/a n/a n/a
02/06:30am W 16-20 kts n/a n/a n/a n/a
02/06:00am W 16-21 kts n/a n/a n/a n/a
02/05:30am WNW 18-21 kts n/a n/a n/a n/a
02/05:00am W 18-22 kts n/a n/a n/a n/a
02/04:30am W 16-20 kts n/a n/a n/a n/a
02/04:00am W 19-24 kts n/a n/a n/a n/a
02/03:30am WNW 20-26 kts n/a n/a n/a n/a
02/03:00am WNW 19-22 kts n/a n/a n/a n/a
02/02:30am WNW 23-29 kts n/a n/a n/a n/a
02/02:00am WNW 22-28 kts n/a n/a n/a n/a
02/01:30am WNW 20-24 kts n/a n/a n/a n/a
02/01:00am WNW 19-22 kts n/a n/a n/a n/a
02/12:30am WNW 21-26 kts n/a n/a n/a n/a
02/12:00am WNW 20-25 kts n/a n/a n/a n/a